Weather History for KIZA - October, 2012

Change the Weather History Date:

Friday, October 12, 2012

  Actual Average (KSBA) Record (KSBA)
Temperature  
Mean Temperature 56 °F 62 °F  
Max Temperature 69 °F 72 °F 90 °F (2011)
Min Temperature 44 °F 52 °F 41 °F (2008)
Degree Days  
Heating Degree Days 8 3  
Month to date heating degree days 35  
Since 1 July heating degree days 130  
Cooling Degree Days 0 0  
Month to date cooling degree days 11  
Year to date cooling degree days 182  
Growing Degree Days 6 (Base 50)    
Moisture  
Dew Point 47 °F    
Average Humidity 73    
Maximum Humidity 100    
Minimum Humidity 40    
Precipitation  
Precipitation 0.00 in 0.03 in 0.28 in (2007)
Month to date precipitation 0.23  
Year to date precipitation 12.69  
Since 1 July precipitation 0.64  
Sea Level Pressure  
Sea Level Pressure 30.09 in    
Wind  
Wind Speed 4 mph (NW)    
Max Wind Speed 13 mph    
Max Gust Speed -    
Visibility 9 miles    
Events Fog    
T = Trace of Precipitation, MM = Missing Value Source: NWS Daily Summary

Daily Weather History Graph

Daily Weather History Graph

Search for Another Location

Airport or City:

Trip Planner

Search our weather history database for the weather conditions in past years. The results will help you decide how hot, cold, wet, or windy it might be!

Date:

Astronomy

Oct. 12, 2012 Rise Set
Actual Time 7:03 AM PDT 6:28 PM PDT
Civil Twilight 6:38 AM PDT 6:54 PM PDT
Nautical Twilight 6:09 AM PDT 7:23 PM PDT
Astronomical Twilight 5:40 AM PDT 7:52 PM PDT
Moon 3:59 AM PDT (10/12) 4:36 PM PDT (10/12)
Length of Visible Light 12h 15m
Length of Day
11h 24m
Waning Crescent, 10% of the Moon is Illuminated
Oct 12
Waning Crescent
Oct 15
New
Oct 21
First Quarter
Oct 29
Full
Nov 6
Last Quarter

Hourly Weather History & Observations

Time (PDT) Temp. Windchill Dew Point Humidity Pressure Visibility Wind Dir Wind Speed Gust Speed Precip Events Conditions
12:15 AM 50.0 °F - 46.4 °F 87% 30.00 in 10.0 mi North 4.6 mph - N/A   Mostly Cloudy
12:35 AM 50.0 °F - 46.4 °F 87% 30.00 in 10.0 mi Calm Calm - N/A   Mostly Cloudy
12:55 AM 48.2 °F - 44.6 °F 87% 30.00 in 10.0 mi Calm Calm - N/A   Mostly Cloudy
1:15 AM 50.0 °F - 46.4 °F 87% 30.01 in 10.0 mi Calm Calm - N/A   Mostly Cloudy
1:35 AM 50.0 °F - 46.4 °F 87% 30.01 in 10.0 mi NW 3.5 mph - N/A   Overcast
1:55 AM 50.0 °F - 46.4 °F 87% 30.02 in 10.0 mi NNW 3.5 mph - N/A   Mostly Cloudy
2:15 AM 50.0 °F - 46.4 °F 87% 30.03 in 7.0 mi Calm Calm - N/A   Overcast
2:35 AM 50.0 °F - 46.4 °F 87% 30.02 in 7.0 mi SE 3.5 mph - N/A   Overcast
2:55 AM 48.2 °F - 44.6 °F 87% 30.02 in 10.0 mi ESE 3.5 mph - N/A   Overcast
3:15 AM 50.0 °F - 46.4 °F 87% 30.01 in 5.0 mi Calm Calm - N/A   Mostly Cloudy
3:35 AM 48.2 °F - 44.6 °F 87% 30.00 in 7.0 mi ESE 4.6 mph - N/A   Scattered Clouds
3:55 AM 48.2 °F - 46.4 °F 93% 30.00 in 10.0 mi NNE 3.5 mph - N/A   Scattered Clouds
4:15 AM 46.4 °F - 44.6 °F 93% 30.01 in 10.0 mi Calm Calm - N/A   Clear
4:35 AM 46.4 °F 45.2 °F 44.6 °F 93% 30.02 in 7.0 mi West 3.5 mph - N/A   Clear
4:55 AM 44.6 °F - 42.8 °F 93% 30.03 in 5.0 mi Calm Calm - N/A   Scattered Clouds
5:15 AM 46.4 °F - 44.6 °F 93% 30.03 in 0.2 mi Calm Calm - N/A Fog Fog
5:35 AM 46.4 °F - 44.6 °F 93% 30.04 in 0.2 mi Calm Calm - N/A Fog Fog
5:55 AM 46.4 °F 44.3 °F 44.6 °F 93% 30.04 in 3.0 mi East 4.6 mph - N/A   Scattered Clouds
6:15 AM 46.4 °F - 44.6 °F 93% 30.05 in 10.0 mi Calm Calm - N/A   Scattered Clouds
6:35 AM 46.4 °F 41.9 °F 46.4 °F 100% 30.05 in 7.0 mi East 9.2 mph - N/A   Scattered Clouds
6:55 AM 50.0 °F - 48.2 °F 94% 30.06 in 10.0 mi ESE 4.6 mph - N/A   Scattered Clouds
7:15 AM 50.0 °F - 46.4 °F 87% 30.07 in 10.0 mi ENE 3.5 mph - N/A   Mostly Cloudy
7:35 AM 50.0 °F - 46.4 °F 87% 30.08 in 7.0 mi Calm Calm - N/A   Mostly Cloudy
7:55 AM 50.0 °F - 48.2 °F 94% 30.08 in 10.0 mi Calm Calm - N/A   Mostly Cloudy
8:15 AM 50.0 °F - 48.2 °F 94% 30.09 in 10.0 mi Calm Calm - N/A   Overcast
8:35 AM 51.8 °F - 50.0 °F 94% 30.10 in 10.0 mi Calm Calm - N/A   Overcast
8:55 AM 53.6 °F - 50.0 °F 88% 30.10 in 10.0 mi Calm Calm - N/A   Overcast
9:15 AM 55.4 °F - 50.0 °F 82% 30.11 in 10.0 mi Calm Calm - N/A   Mostly Cloudy
9:35 AM 59.0 °F - 50.0 °F 72% 30.11 in 10.0 mi ESE 3.5 mph - N/A   Scattered Clouds
9:55 AM 60.8 °F - 50.0 °F 68% 30.11 in 10.0 mi SE 3.5 mph - N/A   Mostly Cloudy
10:15 AM 62.6 °F - 48.2 °F 59% 30.12 in 10.0 mi Calm Calm - N/A   Overcast
11:35 AM 64.4 °F - 46.4 °F 52% 30.13 in 10.0 mi WSW 4.6 mph - N/A   Scattered Clouds
11:55 AM 66.2 °F - 46.4 °F 49% 30.13 in 10.0 mi West 8.1 mph - N/A   Mostly Cloudy
12:15 PM 64.4 °F - 46.4 °F 52% 30.14 in 10.0 mi West 4.6 mph - N/A   Overcast
12:35 PM 64.4 °F - 46.4 °F 52% 30.14 in 10.0 mi NW 6.9 mph - N/A   Overcast
12:55 PM 64.4 °F - 46.4 °F 52% 30.14 in 10.0 mi NW 9.2 mph - N/A   Overcast
1:15 PM 64.4 °F - 44.6 °F 49% 30.14 in 10.0 mi NW 9.2 mph - N/A   Overcast
1:35 PM 64.4 °F - 46.4 °F 52% 30.14 in 10.0 mi NNW 8.1 mph - N/A   Overcast
1:55 PM 64.4 °F - 46.4 °F 52% 30.13 in 10.0 mi WNW 8.1 mph - N/A   Overcast
2:15 PM 68.0 °F - 46.4 °F 46% 30.12 in 10.0 mi WNW 11.5 mph - N/A   Scattered Clouds
2:35 PM 68.0 °F - 46.4 °F 46% 30.13 in 10.0 mi NW 11.5 mph - N/A   Clear
2:55 PM 68.0 °F - 44.6 °F 43% 30.12 in 10.0 mi NW 9.2 mph - N/A   Scattered Clouds
3:15 PM 68.0 °F - 44.6 °F 43% 30.12 in 10.0 mi NW 10.4 mph - N/A   Clear
3:35 PM 69.8 °F - 44.6 °F 40% 30.12 in 10.0 mi NW 9.2 mph - N/A   Clear
3:55 PM 68.0 °F - 44.6 °F 43% 30.12 in 10.0 mi NW 5.8 mph - N/A   Clear
4:15 PM 68.0 °F - 44.6 °F 43% 30.12 in 10.0 mi NNW 8.1 mph - N/A   Clear
4:35 PM 68.0 °F - 44.6 °F 43% 30.12 in 10.0 mi NW 8.1 mph - N/A   Clear
4:55 PM 68.0 °F - 44.6 °F 43% 30.11 in 10.0 mi NW 12.7 mph - N/A   Clear
5:15 PM 68.0 °F - 44.6 °F 43% 30.11 in 10.0 mi WNW 10.4 mph - N/A   Clear
5:35 PM 66.2 °F - 46.4 °F 49% 30.12 in 10.0 mi NW 11.5 mph - N/A   Clear
5:55 PM 64.4 °F - 46.4 °F 52% 30.12 in 10.0 mi NW 11.5 mph - N/A   Clear
6:15 PM 62.6 °F - 46.4 °F 55% 30.13 in 10.0 mi NW 8.1 mph - N/A   Clear
6:35 PM 60.8 °F - 46.4 °F 59% 30.15 in 10.0 mi WNW 6.9 mph - N/A   Clear
10:35 PM 53.6 °F - 50.0 °F 88% 30.19 in 10.0 mi NW 4.6 mph - N/A   Overcast
10:55 PM 53.6 °F - 50.0 °F 88% 30.19 in 10.0 mi Calm Calm - N/A   Overcast
11:15 PM 53.6 °F - 50.0 °F 88% 30.19 in 10.0 mi Calm Calm - N/A   Overcast
11:35 PM 53.6 °F - 50.0 °F 88% 30.19 in 10.0 mi Calm Calm - N/A   Overcast
11:55 PM 53.6 °F - 50.0 °F 88% 30.18 in 10.0 mi Calm Calm - N/A   Overcast